This is the latest recevied weather packets stored in our database for station/object KC8QDR-1. If no packets are shown the sender has not sent any weather packets the latest 10 day(s).
| Time | Temp. | Humidity | Pressure | Rain* | Wind** | Luminosity | Snow |
|---|---|---|---|---|---|---|---|
| 1777582725 | 11.11° C | 56% | 1018 hPa | 0 mm | 0 m/s | - | - |
| 1777582124 | 11.67° C | 53% | 1018.3 hPa | 0 mm | 0 m/s | - | - |
| 1777581525 | 12.22° C | 55% | 1018.5 hPa | 0 mm | 0 m/s | - | - |
| 1777580924 | 11.67° C | 55% | 1018.7 hPa | 0 mm | 0 m/s | - | - |
| 1777580326 | 11.11° C | 57% | 1018.9 hPa | 0 mm | 0 m/s | - | - |
| 1777579727 | 11.11° C | 61% | 1019.2 hPa | 0 mm | 0 m/s | - | - |
| 1777579178 | 11.11° C | 57% | 1019.4 hPa | 0 mm | 1.34 m/s, 228° | - | - |
| 1777579124 | 11.11° C | 57% | 1019.4 hPa | 0 mm | 1.34 m/s, 228° | - | - |
| 1777578525 | 11.67° C | 63% | 1019.2 hPa | 0 mm | 0.45 m/s, 50° | - | - |
| 1777577926 | 11.67° C | 57% | 1019.1 hPa | 0 mm | 2.24 m/s, 248° | - | - |
| 1777577326 | 11.67° C | 61% | 1018.9 hPa | 0 mm | 3.58 m/s, 31° | - | - |
| 1777576125 | 11.11° C | 62% | 1019.2 hPa | 0 mm | 1.79 m/s, 22° | - | - |
| 1777575525 | 10.56° C | 66% | 1019.2 hPa | 0 mm | 2.24 m/s, 345° | - | - |
| 1777574924 | 10° C | 65% | 1019.1 hPa | 0 mm | 0.45 m/s, 297° | - | - |
| 1777574408 | 10° C | 65% | 1019.2 hPa | 0 mm | 2.24 m/s, 228° | - | - |
| 1777574326 | 10° C | 65% | 1019.2 hPa | 0 mm | 2.24 m/s, 228° | - | - |
| 1777573725 | 10° C | 67% | 1019.2 hPa | 0 mm | 3.13 m/s, 245° | - | - |
| 1777573124 | 9.44° C | 70% | 1019.4 hPa | 0 mm | 1.34 m/s, 354° | - | - |
| 1777572524 | 9.44° C | 70% | 1020 hPa | 0 mm | 0.89 m/s, 5° | - | - |
| 1777570725 | 10° C | 66% | 1019.8 hPa | 0 mm | 1.79 m/s, 273° | - | - |
| 1777569528 | 8.89° C | 76% | 1019.8 hPa | 0 mm | 0.89 m/s, 352° | - | - |
| 1777568925 | 8.89° C | 74% | 1019.9 hPa | 0 mm | 3.58 m/s, 331° | - | - |
| 1777568325 | 8.89° C | 75% | 1020 hPa | 0 mm | 2.68 m/s, 351° | - | - |
| 1777567725 | 8.33° C | 74% | 1020 hPa | 0 mm | 0.89 m/s, 9° | - | - |
| 1777567127 | 8.33° C | 74% | 1019.9 hPa | 0 mm | 1.79 m/s, 290° | - | - |
* Rain latest hour (hover to see other rain measurements)
** Current wind speed in m/s (hover to see current wind gust speed)